Find Starlink 34638

NORAD ID: 64762 Int'l Des: 2025-147 Owner: SPXS Country: US Constellation: starlink operational
LEOCIRCULAR

Live Position

Loading 3D Globe...

About Starlink 34638

Description loading...

Upcoming Passes

Passes for default location (London). Set your location on the main map for personalized predictions.

Altitude History

Loading altitude history...

Two-Line Element Set

1 64762U 25147H 26104.89192539 .00007859 00000-0 27718-3 0 9990
2 64762 53.1589 74.6532 0001391 88.0676 272.0484 15.30202115 44290
Epoch: Apr 14, 2026 • Age: 12 hours

Current Status

Altitude 481.6 km
Velocity 7.62 km/s
Sub-Earth Point -21.29°S, 64.35°E
Launch Date Jul 8, 2025
Age 0.7 years
Type internet

Technical Details

Classification Payload
Mass 575.00 kg
Dry Mass 530.00 kg
Total Mass 575.00 kg
Length 0.30 m
Diameter 4.10 m
Span 29.00 m
Shape Box + pan
Manufacturer SPXS
Bus Type Starlink V2MO
Phase Status In Orbit
Owner/State SPXS/US

Most Searched